Location: Ackerson Creek
(37.8210°N, 119.8757°W)
Time: 15:38:21
(UTC+00:00)

Cosmos 1766 - Pass Details

Date: 13 April 2024
Orbit: 487 x 504 km, 82.5° (Epoch: 23 May)

Event Time Altitude Azimuth Distance (km) Brightness Sun altitude
Rises 11:12:26 0° 21° (NNE) 2,569 7.6 -24.9°
Reaches altitude 10° 12:48:58 10° 340° (NNW) 1,682 5.8 -7.9°
Maximum altitude 12:52:29 46° 267° (W) 659 3.3 -7.3°
Drops below altitude 10° 12:56:00 10° 193° (SSW) 1,666 5.5 -6.6°
Sets 12:58:08 0° 187° (S) 2,541 6.5 -6.2°
